Location: Newark
(57.9988°N, 22.0181°E)
Time: 20:56:54
(UTC+00:00)

Envisat - Visible Passes

Search period start: 19 September 2021 00:00
Search period end: 29 September 2021 00:00
Orbit: 764 x 766 km, 98.2° (Epoch: 19 September)

Date Brightness Start Highest point End Pass type
(mag) Time Alt. Az. Time Alt. Az. Time Alt. Az.
19 Sep 5.7 02:39:40 10° NE 02:43:35 22° E 02:47:28 10° SE visible
20 Sep 6.2 02:04:10 10° ENE 02:06:08 12° E 02:08:06 10° ESE visible
21 Sep 5.0 03:04:39 10° NNE 03:09:13 32° E 03:13:44 10° SSE visible
22 Sep 5.8 02:28:24 10° NE 02:31:55 18° E 02:35:24 10° SE visible
23 Sep 4.2 03:29:49 10° NNE 03:34:45 47° E 03:39:39 10° S visible
24 Sep 5.3 02:53:16 10° NNE 02:57:35 27° E 03:01:53 10° SSE visible
25 Sep 6.0 02:17:14 10° NE 02:20:14 15° E 02:23:12 10° ESE visible
26 Sep 4.6 03:18:21 10° NNE 03:23:10 40° E 03:27:56 10° SSE visible
27 Sep 5.6 02:41:55 10° NE 02:45:56 23° E 02:49:56 10° SE visible
28 Sep 6.1 02:06:15 10° NE 02:08:31 13° E 02:10:47 10° ESE visible
28 Sep 3.7 03:43:35 10° NNE 03:48:39 60° ESE 03:53:40 10° S visible
